Location: Poughquag
(41.6090°N, 73.6820°W)
Time: 12:53:32
(UTC-04:00)

Tiros 1 despin weight - Pass Details

Date: 07 June 2020
Orbit: 593 x 642 km, 48.2° (Epoch: 07 July)

Event Time Altitude Azimuth Distance (km) Brightness Sun altitude
Rises 14:41:32 0° 294° (WNW) 2,900 ? 60.7°
Reaches altitude 10° 14:44:00 10° 285° (WNW) 1,982 ? 60.3°
Maximum altitude 14:48:09 35° 220° (SW) 983 ? 59.6°
Drops below altitude 10° 14:52:13 10° 154° (SSE) 1,944 ? 59.0°
Sets 14:54:37 0° 145° (SE) 2,836 ? 58.6°
